Regional Weather Roundup
Issued by NWS

Home | Current Version | Previous Version | Graphics & Text | Print | Product List | Glossary On
Versions: 1 2 3 4 5 6 7 8 9 10 11 12 13 14 15 16 17 18 19 20 21 22 23 24 25 26 27 28 29 30 31 32 33 34 35 36 37 38 39 40 41 42 43 44 45 46 47 48 49 50
000
ASUS44 KMEG 231610
RWRTN
TENNESSEE HOURLY STATE WEATHER ROUNDUP
NATIONAL WEATHER SERVICE MEMPHIS TN
1100 AM CDT WED APR 23 2014

TNZ002-004-019-021-049-052-054-088>092-231700-
WEST TENNESSEE

CITY           SKY/WX    TMP DP  RH WIND       PRES   REMARKS
MEMPHIS INTL   SUNNY     69  38  32 E7        30.05F
NWS MEMPHIS      N/A     69 N/A N/A MISG        N/A
JACKSON        SUNNY     68  34  28 NE8       30.06F
DYERSBURG      SUNNY     66  34  30 NE12      30.08S
UNION CITY     SUNNY     63  39  42 E7        30.07F
PARIS          SUNNY     60  36  40 NE12      30.09F
LEXINGTON      SUNNY     64  36  34 E8        30.07S
SILERTON         N/A     69  38  31 E5          N/A
SAVANNAH       SUNNY     68  37  31 NE9       30.07R
$$

TNZ008-025-027-028-033-062-065-066-231700-
NORTH MIDDLE TENNESSEE

CITY           SKY/WX    TMP DP  RH WIND       PRES   REMARKS
NASHVILLE      SUNNY     62  36  37 N8        30.10R
DICKSON        SUNNY     59  34  38 NE9       30.09R
CLARKSVILLE    SUNNY     59  39  47 E7        30.10F
SMYRNA         SUNNY     63  36  36 N12G17    30.10S
MURFREESBORO   SUNNY     60  35  39 NE9       30.08S
COOKEVILLE     SUNNY     59  34  38 NE10      30.07S
LIVINGSTON     SUNNY     55  33  43 N8        30.07F
GALLATIN       SUNNY     59  36  42 VRB3      30.10S
CROSSVILLE     SUNNY     56  27  32 NE12      30.06F
$$

TNZ061-075-076-078-094-096-097-231700-
SOUTH MIDDLE TENNESSEE

CITY           SKY/WX    TMP DP  RH WIND       PRES   REMARKS
LEWISBURG      SUNNY     62  38  41 NE8       30.07S
FAYETTEVILLE   SUNNY     61  37  40 VRB7      30.06R
TULLAHOMA      SUNNY     61  36  39 NE7       30.07S
WINCHESTER     SUNNY     61  37  41 N10       30.06S
MCMINNVILLE    SUNNY     61  36  39 NE9       30.07S
COLUMBIA       SUNNY     63  46  55 NE13      30.07R
SHELBYVILLE    SUNNY     61  41  48 NE10      30.08S
$$

TNZ017-018-042-046-047-231700-
NORTHEAST TENNESSEE

CITY           SKY/WX    TMP DP  RH WIND       PRES   REMARKS
TRI CITIES     SUNNY     60  20  21 W10       30.01S
ELIZABETHTON   SUNNY     55  28  35 CALM      30.00S
$$

TNZ012-013-036-069-073-074-231700-
CENTRAL EAST TENNESSEE

CITY           SKY/WX    TMP DP  RH WIND       PRES   REMARKS
KNOXVILLE      SUNNY     59  32  36 NW6       30.04S
OAK RIDGE      SUNNY     61  31  32 CALM      30.05F
$$

TNZ083-085-099-231700-
SOUTHEAST TENNESSEE

CITY           SKY/WX    TMP DP  RH WIND       PRES   REMARKS
CHATTANOOGA    SUNNY     64  35  34 NE7       30.04S
$$

SKY/WX REPORTED AS FAIR MEANS FEW OR NO CLOUDS BELOW
12 THOUSAND FEET.




USA.gov is the U.S. government's official web portal to all federal, state and local government web resources and services.